sat.trackr.live / text

‹ back to catalog

STARLINK-11172 [DTC]

NORAD 60193 · 2024-124L

PAYLOAD ACTIVE UNKNOWN

§ Identity

Operator
Country
US
Launch date
2024-07-03
Launch site
AFETR
Launch vehicle
Mass (kg)
RCS (m²)

Purposes: comms

External: N2YO · Heavens-Above · Gunter

§ Orbital elements

Epoch: 2026-05-25T05:24:07.468416Z

Period
91.74 min
Inclination
53.1591°
Eccentricity
0.0001666
Mean motion
15.69703765 rev/d
Perigee alt
358.6 km
Apogee alt
360.9 km
Semi-major
6,737.9 km
B*
-2.0356e-5
RAAN
144.0482°
Arg perigee
75.0261°
Mean anomaly
285.0941°
Rev number
10,855

§ Raw data

STARLINK-11172 [DTC]1 60193U 24124L   26145.22508644 -.00003054  00000+0 -20356-4 0  99942 60193  53.1591 144.0482 0001666  75.0261 285.0941 15.69703765108555

JSON: /api/v1/satellites/60193 · /tle

For live sub-satellite position, see the globe view (requires WebGL).

§ Visibility from observer

Set your observer location to see the next 7 days of passes ≥ 10°. The values pass through the URL so the page stays shareable.

No JS? Fill the form by hand. The geolocation button needs JavaScript.